Location: Campo Claro
(10.4907°N, 66.8285°W)
Time: 04:10:11
(UTC+00:00)

Cosmos 1553 Rocket - Pass Details

Date: 05 July 2022
Orbit: 941 x 1009 km, 82.9° (Epoch: 14 August)

Event Time Altitude Azimuth Distance (km) Brightness Sun altitude
Rises 23:22:24 0° 181° (S) 3,678 6.8 -7.3°
Reaches altitude 10° 23:24:54 10° 180° (S) 2,739 6.1 -7.9°
Maximum altitude 23:31:12 81° 93° (E) 1,010 4.0 -9.3°
Drops below altitude 10° 23:37:35 10° 6° (N) 2,773 6.6 -10.7°
Sets 23:40:07 0° 6° (N) 3,726 7.3 -11.3°
